| time (UTC) | temp F | wind direction | speed knots | gust knots | rain 1hr in | rain 24hr in | rain mn in | humidity % | barometer mb |
| 20260503190528 | 59 | 280 | 2.6 | 2.6 | 0.00 | 0.00 | 0.00 | 32 | 1017.0 |
| 20260503190025 | 59 | 233 | 1.7 | 2.6 | 0.00 | 0.00 | 0.00 | 31 | 1017.4 |
| 20260503185521 | 59 | 261 | 1.7 | 2.6 | 0.00 | 0.00 | 0.00 | 30 | 1017.4 |
| 20260503185020 | 59 | 306 | 7.0 | 7.8 | 0.00 | 0.00 | 0.00 | 30 | 1017.4 |
| 20260503184517 | 59 | 325 | 4.3 | 5.2 | 0.00 | 0.00 | 0.00 | 34 | 1017.5 |
| 20260503184013 | 58 | 306 | 1.7 | 1.7 | 0.00 | 0.00 | 0.00 | 33 | 1017.6 |
| 20260503183510 | 58 | 302 | 1.7 | 1.7 | 0.00 | 0.00 | 0.00 | 35 | 1017.6 |
| 20260503183007 | 58 | 24 | 4.3 | 6.1 | 0.00 | 0.00 | 0.00 | 33 | 1017.5 |
| 20260503182506 | 57 | 269 | 2.6 | 2.6 | 0.00 | 0.00 | 0.00 | 32 | 1017.7 |
| 20260503182004 | 57 | 42 | 2.6 | 2.6 | 0.00 | 0.00 | 0.00 | 36 | 1017.6 |
| 20260503181500 | 59 | 72 | 1.7 | 1.7 | 0.00 | 0.00 | 0.00 | 35 | 1017.8 |
| 20260503180956 | 58 | 141 | 2.6 | 2.6 | 0.00 | 0.00 | 0.00 | 36 | 1017.6 |
| 20260503180454 | 57 | 321 | 2.6 | 4.3 | 0.00 | 0.00 | 0.00 | 37 | 1017.6 |
| 20260503175951 | 59 | 182 | 1.7 | 2.6 | 0.00 | 0.00 | 0.00 | 34 | 1017.7 |
| 20260503175449 | 57 | 260 | 0.0 | 0.9 | 0.00 | 0.00 | 0.00 | 42 | 1017.7 |
| 20260503174944 | 57 | 189 | 0.9 | 0.9 | 0.00 | 0.00 | 0.00 | 37 | 1017.9 |
| 20260503174443 | 58 | 220 | 3.5 | 5.2 | 0.00 | 0.00 | 0.00 | 34 | 1017.9 |
| 20260503173944 | 57 | 232 | 1.7 | 1.7 | 0.00 | 0.00 | 0.00 | 38 | 1018.0 |
| 20260503173440 | 57 | 247 | 1.7 | 2.6 | 0.00 | 0.00 | 0.00 | 38 | 1017.9 |
| 20260503172937 | 57 | 273 | 1.7 | 1.7 | 0.00 | 0.00 | 0.00 | 34 | 1018.0 |
| 20260503172434 | 57 | 263 | 1.7 | 2.6 | 0.00 | 0.00 | 0.00 | 34 | 1018.2 |
| 20260503171930 | 56 | 266 | 0.9 | 0.9 | 0.00 | 0.00 | 0.00 | 38 | 1018.2 |
| 20260503171427 | 57 | 201 | 1.7 | 2.6 | 0.00 | 0.00 | 0.00 | 39 | 1018.2 |
| 20260503170925 | 56 | 250 | 2.6 | 4.3 | 0.00 | 0.00 | 0.00 | 37 | 1018.0 |
| 20260503170421 | 57 | 279 | 1.7 | 1.7 | 0.00 | 0.00 | 0.00 | 40 | 1018.3 |
| 20260503150813 | 50 | 188 | 3.5 | 5.2 | 0.00 | 0.00 | 0.00 | 45 | 1019.4 |
| 20260503150309 | 50 | 310 | 2.6 | 4.3 | 0.00 | 0.00 | 0.00 | 50 | 1019.5 |
| 20260503140234 | 50 | 259 | 1.7 | 2.6 | 0.00 | 0.00 | 0.00 | 52 | 1019.3 |
| 20260503131203 | 47 | 118 | 0.9 | 1.7 | 0.00 | 0.00 | 0.00 | 52 | 1019.3 |
| 20260503130701 | 47 | 144 | 2.6 | 2.6 | 0.00 | 0.00 | 0.00 | 54 | 1019.2 |
| 20260503130158 | 46 | 251 | 0.9 | 0.9 | 0.00 | 0.00 | 0.00 | 53 | 1019.3 |
| 20260503120123 | 44 | 269 | 1.7 | 2.6 | 0.00 | 0.00 | 0.00 | 58 | 1019.0 |
| 20260503110551 | 35 | 260 | 0.0 | 0.0 | 0.00 | 0.00 | 0.00 | 81 | 1018.6 |
| 20260503090438 | 38 | 291 | 0.0 | 0.9 | 0.00 | 0.00 | 0.00 | 79 | 1017.0 |
| 20260503081404 | 38 | 267 | 0.0 | 0.9 | 0.00 | 0.00 | 0.00 | 77 | 1016.9 |
| 20260503080901 | 38 | 235 | 0.9 | 0.9 | 0.00 | 0.00 | 0.00 | 81 | 1016.9 |
| 20260503080358 | 38 | 276 | 0.0 | 0.9 | 0.00 | 0.00 | 0.00 | 81 | 1016.7 |
| 20260503072834 | 36 | 261 | 0.0 | 0.0 | 0.00 | 0.00 | 0.00 | 85 | 1016.4 |
| 20260503072331 | 36 | 256 | 0.0 | 0.0 | 0.00 | 0.00 | 0.00 | 85 | 1016.5 |
| 20260503071827 | 35 | 259 | 0.0 | 0.0 | 0.00 | 0.00 | 0.00 | 86 | 1016.5 |
| 20260503071325 | 36 | 277 | 0.9 | 1.7 | 0.00 | 0.00 | 0.00 | 86 | 1016.5 |
| 20260503070821 | 36 | 266 | 0.0 | 0.0 | 0.00 | 0.00 | 0.00 | 85 | 1016.5 |
| 20260503070319 | 36 | 264 | 0.0 | 0.0 | 0.00 | 0.00 | 0.00 | 85 | 1016.4 |
| 20260503060250 | 39 | 287 | 0.0 | 0.0 | 0.00 | 0.00 | 0.00 | 77 | 1016.1 |
| 20260503054737 | 40 | 293 | 0.9 | 1.7 | 0.00 | 0.00 | 0.00 | 74 | 1016.1 |
| 20260503054234 | 40 | 276 | 0.0 | 0.9 | 0.00 | 0.00 | 0.00 | 74 | 1016.1 |
| 20260503053732 | 40 | 283 | 0.0 | 0.9 | 0.00 | 0.00 | 0.00 | 72 | 1015.9 |
| 20260503053231 | 40 | 285 | 0.0 | 0.9 | 0.00 | 0.00 | 0.00 | 75 | 1016.2 |
| 20260503052726 | 40 | 276 | 0.0 | 0.0 | 0.00 | 0.00 | 0.00 | 76 | 1016.1 |
| 20260503052223 | 40 | 304 | 0.9 | 0.9 | 0.00 | 0.00 | 0.00 | 74 | 1016.2 |
| 20260503051718 | 40 | 261 | 0.0 | 0.0 | 0.00 | 0.00 | 0.00 | 75 | 1016.2 |
| 20260503051216 | 40 | 307 | 0.9 | 0.9 | 0.00 | 0.00 | 0.00 | 73 | 1016.4 |
| 20260503050712 | 41 | 283 | 0.0 | 0.9 | 0.00 | 0.00 | 0.00 | 73 | 1016.2 |
| 20260503050209 | 41 | 273 | 0.9 | 0.9 | 0.00 | 0.00 | 0.00 | 73 | 1016.2 |
| 20260503045707 | 41 | 355 | 3.5 | 4.3 | 0.00 | 0.00 | 0.00 | 72 | 1016.2 |
| 20260503045204 | 41 | 325 | 0.9 | 1.7 | 0.00 | 0.00 | 0.00 | 73 | 1016.4 |
| 20260503044700 | 41 | 294 | 1.7 | 1.7 | 0.00 | 0.00 | 0.00 | 73 | 1016.4 |
| 20260503044158 | 41 | 281 | 0.9 | 0.9 | 0.00 | 0.00 | 0.00 | 74 | 1016.4 |
| 20260503043654 | 42 | 274 | 0.0 | 0.0 | 0.00 | 0.00 | 0.00 | 74 | 1016.4 |
| 20260503043152 | 41 | 277 | 0.9 | 1.7 | 0.00 | 0.00 | 0.00 | 72 | 1016.2 |
| 20260503042647 | 41 | 336 | 0.9 | 0.9 | 0.00 | 0.00 | 0.00 | 73 | 1016.2 |
| 20260503042144 | 41 | 56 | 1.7 | 1.7 | 0.00 | 0.00 | 0.00 | 74 | 1016.5 |
| 20260503041640 | 41 | 238 | 0.9 | 0.9 | 0.00 | 0.00 | 0.00 | 76 | 1016.5 |
| 20260503041138 | 41 | 269 | 0.0 | 0.0 | 0.00 | 0.00 | 0.00 | 75 | 1016.4 |
| 20260503040636 | 41 | 1 | 1.7 | 2.6 | 0.00 | 0.00 | 0.00 | 75 | 1016.6 |
| 20260503040133 | 41 | 302 | 1.7 | 1.7 | 0.00 | 0.00 | 0.00 | 74 | 1016.4 |
| 20260503035629 | 41 | 265 | 0.0 | 0.0 | 0.00 | 0.00 | 0.00 | 75 | 1016.4 |
| 20260503035127 | 41 | 265 | 0.0 | 0.0 | 0.00 | 0.00 | 0.00 | 74 | 1016.2 |
| 20260503034624 | 41 | 301 | 0.9 | 0.9 | 0.00 | 0.00 | 0.00 | 75 | 1016.4 |
| 20260503034121 | 41 | 255 | 0.0 | 0.9 | 0.00 | 0.00 | 0.00 | 74 | 1016.1 |
| 20260503033618 | 41 | 299 | 1.7 | 1.7 | 0.00 | 0.00 | 0.00 | 74 | 1016.2 |
| 20260503033116 | 41 | 270 | 0.0 | 0.0 | 0.00 | 0.00 | 0.00 | 72 | 1016.4 |
| 20260503032614 | 42 | 258 | 0.0 | 0.0 | 0.00 | 0.00 | 0.00 | 72 | 1016.1 |
| 20260503032112 | 42 | 292 | 0.0 | 0.9 | 0.00 | 0.00 | 0.00 | 70 | 1016.2 |
| 20260503031610 | 43 | 273 | 0.9 | 0.9 | 0.00 | 0.00 | 0.00 | 71 | 1016.1 |
| 20260503031107 | 43 | 263 | 0.0 | 0.0 | 0.00 | 0.00 | 0.00 | 71 | 1016.1 |
| 20260503030603 | 42 | 239 | 0.0 | 0.9 | 0.00 | 0.00 | 0.00 | 71 | 1016.4 |
| 20260503030100 | 42 | 306 | 0.9 | 0.9 | 0.00 | 0.00 | 0.00 | 70 | 1016.4 |
| 20260503025556 | 42 | 249 | 0.9 | 1.7 | 0.00 | 0.00 | 0.00 | 69 | 1016.2 |
| 20260503025054 | 42 | 278 | 1.7 | 2.6 | 0.00 | 0.00 | 0.00 | 70 | 1016.4 |
| 20260503024550 | 41 | 265 | 0.0 | 0.0 | 0.00 | 0.00 | 0.00 | 70 | 1016.4 |
| 20260503024048 | 42 | 217 | 0.0 | 0.0 | 0.00 | 0.00 | 0.00 | 69 | 1016.1 |
| 20260503023544 | 42 | 277 | 0.9 | 0.9 | 0.00 | 0.00 | 0.00 | 69 | 1016.2 |
| 20260503023042 | 42 | 274 | 0.9 | 0.9 | 0.00 | 0.00 | 0.00 | 68 | 1016.2 |
| 20260503022538 | 42 | 280 | 0.9 | 0.9 | 0.00 | 0.00 | 0.00 | 66 | 1016.4 |
| 20260503022032 | 43 | 243 | 0.0 | 0.0 | 0.00 | 0.00 | 0.00 | 66 | 1016.2 |
| 20260503021530 | 43 | 274 | 0.9 | 0.9 | 0.00 | 0.00 | 0.00 | 64 | 1016.5 |
| 20260503021026 | 44 | 10 | 1.7 | 2.6 | 0.00 | 0.00 | 0.00 | 64 | 1016.1 |
| 20260503020524 | 44 | 269 | 0.9 | 0.9 | 0.00 | 0.00 | 0.00 | 62 | 1016.0 |
| 20260503020021 | 44 | 270 | 0.0 | 0.9 | 0.00 | 0.00 | 0.00 | 63 | 1015.9 |
| 20260503015517 | 43 | 303 | 1.7 | 2.6 | 0.00 | 0.00 | 0.00 | 61 | 1016.1 |
| 20260503015014 | 44 | 268 | 0.0 | 0.0 | 0.00 | 0.00 | 0.00 | 64 | 1015.9 |
| 20260503014510 | 44 | 265 | 0.0 | 0.0 | 0.00 | 0.00 | 0.00 | 61 | 1015.9 |
| 20260503014009 | 45 | 279 | 0.9 | 0.9 | 0.00 | 0.00 | 0.00 | 58 | 1015.7 |
| 20260503013505 | 45 | 211 | 0.9 | 0.9 | 0.00 | 0.00 | 0.00 | 60 | 1015.6 |
| 20260503013003 | 45 | 220 | 0.9 | 0.9 | 0.00 | 0.00 | 0.00 | 57 | 1015.6 |
| 20260503012501 | 45 | 298 | 0.9 | 1.7 | 0.00 | 0.00 | 0.00 | 57 | 1015.7 |
| 20260503011956 | 46 | 268 | 0.0 | 0.0 | 0.00 | 0.00 | 0.00 | 58 | 1015.6 |
| 20260503011453 | 45 | 300 | 0.9 | 0.9 | 0.00 | 0.00 | 0.00 | 57 | 1015.3 |
| 20260503010950 | 46 | 260 | 0.0 | 0.0 | 0.00 | 0.00 | 0.00 | 58 | 1015.3 |
| 20260503010447 | 46 | 275 | 2.6 | 2.6 | 0.00 | 0.00 | 0.00 | 55 | 1015.4 |
| 20260503005944 | 46 | 263 | 0.0 | 0.9 | 0.00 | 0.00 | 0.00 | 55 | 1015.2 |
| 20260503005441 | 46 | 268 | 0.9 | 0.9 | 0.00 | 0.00 | 0.00 | 55 | 1015.0 |
| 20260503004938 | 46 | 221 | 0.9 | 0.9 | 0.00 | 0.00 | 0.00 | 55 | 1015.1 |
| 20260503004435 | 46 | 297 | 0.9 | 1.7 | 0.00 | 0.00 | 0.00 | 55 | 1014.8 |
| 20260503003932 | 46 | 258 | 0.0 | 0.9 | 0.00 | 0.00 | 0.00 | 53 | 1014.9 |
| 20260503003429 | 47 | 271 | 0.0 | 0.9 | 0.00 | 0.00 | 0.00 | 53 | 1014.8 |
| 20260503002926 | 47 | 274 | 0.9 | 1.7 | 0.00 | 0.00 | 0.00 | 52 | 1014.9 |
| 20260503002423 | 47 | 276 | 0.9 | 0.9 | 0.00 | 0.00 | 0.00 | 54 | 1014.6 |
| 20260503001919 | 47 | 285 | 0.0 | 0.9 | 0.00 | 0.00 | 0.00 | 52 | 1014.8 |
| 20260503001416 | 47 | 272 | 0.9 | 0.9 | 0.00 | 0.00 | 0.00 | 50 | 1014.8 |
| 20260503000914 | 47 | 298 | 0.9 | 0.9 | 0.00 | 0.00 | 0.00 | 49 | 1014.3 |
| 20260503000411 | 48 | 298 | 0.9 | 0.9 | 0.00 | 0.00 | 0.00 | 48 | 1014.5 |
| 20260502235908 | 48 | 271 | 0.9 | 0.9 | 0.00 | 0.00 | 0.00 | 50 | 1014.5 |
| 20260502235405 | 47 | 230 | 1.7 | 2.6 | 0.00 | 0.00 | 0.00 | 49 | 1014.4 |
| 20260502234902 | 48 | 235 | 0.9 | 1.7 | 0.00 | 0.00 | 0.00 | 50 | 1014.5 |
| 20260502234358 | 48 | 239 | 0.9 | 1.7 | 0.00 | 0.00 | 0.00 | 47 | 1014.5 |
| 20260502233855 | 48 | 182 | 1.7 | 2.6 | 0.00 | 0.00 | 0.00 | 47 | 1014.3 |
| 20260502233351 | 48 | 214 | 0.9 | 1.7 | 0.00 | 0.00 | 0.00 | 48 | 1014.0 |
| 20260502232848 | 48 | 287 | 0.9 | 1.7 | 0.00 | 0.00 | 0.00 | 48 | 1014.3 |
| 20260502232345 | 48 | 276 | 0.9 | 0.9 | 0.00 | 0.00 | 0.00 | 48 | 1014.2 |
| 20260502231841 | 49 | 298 | 0.9 | 1.7 | 0.00 | 0.00 | 0.00 | 47 | 1013.7 |
| 20260502231339 | 49 | 279 | 0.9 | 1.7 | 0.00 | 0.00 | 0.00 | 46 | 1013.9 |
| 20260502230837 | 49 | 286 | 2.6 | 5.2 | 0.00 | 0.00 | 0.00 | 45 | 1013.9 |
| 20260502230335 | 49 | 274 | 1.7 | 1.7 | 0.00 | 0.00 | 0.00 | 45 | 1014.0 |
| 20260502225832 | 49 | 283 | 0.9 | 1.7 | 0.00 | 0.00 | 0.00 | 46 | 1014.0 |
| 20260502225328 | 49 | 296 | 0.9 | 1.7 | 0.00 | 0.00 | 0.00 | 48 | 1013.9 |
| 20260502224825 | 49 | 282 | 2.6 | 4.3 | 0.00 | 0.00 | 0.00 | 46 | 1013.9 |
| 20260502224321 | 49 | 311 | 1.7 | 2.6 | 0.00 | 0.00 | 0.00 | 45 | 1013.8 |
| 20260502223819 | 49 | 225 | 0.9 | 1.7 | 0.00 | 0.00 | 0.00 | 47 | 1013.8 |
| 20260502223317 | 50 | 179 | 0.0 | 0.9 | 0.00 | 0.00 | 0.00 | 45 | 1014.0 |
| 20260502222814 | 50 | 320 | 0.9 | 1.7 | 0.00 | 0.00 | 0.00 | 43 | 1013.6 |
| 20260502222311 | 52 | 174 | 2.6 | 2.6 | 0.00 | 0.00 | 0.00 | 42 | 1013.9 |
| 20260502221807 | 52 | 353 | 4.3 | 7.0 | 0.00 | 0.00 | 0.00 | 41 | 1013.9 |
| 20260502221303 | 54 | 238 | 0.9 | 0.9 | 0.00 | 0.00 | 0.00 | 42 | 1013.7 |
| 20260502220801 | 54 | 241 | 0.9 | 0.9 | 0.00 | 0.00 | 0.00 | 41 | 1013.7 |
| 20260502220256 | 54 | 297 | 1.7 | 1.7 | 0.00 | 0.00 | 0.00 | 43 | 1013.8 |
| 20260502215753 | 54 | 161 | 0.9 | 0.9 | 0.00 | 0.00 | 0.00 | 42 | 1013.6 |
| 20260502215251 | 54 | 278 | 1.7 | 1.7 | 0.00 | 0.00 | 0.00 | 44 | 1013.7 |
| 20260502214748 | 53 | 298 | 1.7 | 1.7 | 0.00 | 0.00 | 0.00 | 43 | 1013.6 |
| 20260502214244 | 54 | 269 | 2.6 | 2.6 | 0.00 | 0.00 | 0.00 | 42 | 1013.7 |
| 20260502213742 | 55 | 180 | 2.6 | 4.3 | 0.00 | 0.00 | 0.00 | 42 | 1013.6 |
| 20260502213239 | 56 | 264 | 0.9 | 0.9 | 0.00 | 0.00 | 0.00 | 40 | 1013.7 |
| 20260502212738 | 55 | 245 | 2.6 | 6.1 | 0.00 | 0.00 | 0.00 | 40 | 1013.9 |
| 20260502212236 | 56 | 258 | 0.9 | 1.7 | 0.00 | 0.00 | 0.00 | 40 | 1013.7 |
| 20260502211731 | 55 | 226 | 0.9 | 1.7 | 0.00 | 0.00 | 0.00 | 40 | 1013.4 |
| 20260502211228 | 54 | 231 | 1.7 | 1.7 | 0.00 | 0.00 | 0.00 | 42 | 1013.7 |
| 20260502210725 | 55 | 271 | 1.7 | 1.7 | 0.00 | 0.00 | 0.00 | 43 | 1013.6 |
| 20260502210223 | 54 | 255 | 0.9 | 0.9 | 0.00 | 0.00 | 0.00 | 42 | 1013.5 |
| 20260502205720 | 54 | 275 | 1.7 | 2.6 | 0.00 | 0.00 | 0.00 | 41 | 1013.7 |
| 20260502205216 | 55 | 246 | 2.6 | 2.6 | 0.00 | 0.00 | 0.00 | 41 | 1013.8 |
| 20260502204713 | 55 | 194 | 1.7 | 1.7 | 0.00 | 0.00 | 0.00 | 41 | 1013.7 |
| 20260502204211 | 54 | 283 | 1.7 | 1.7 | 0.00 | 0.00 | 0.00 | 42 | 1013.6 |
| 20260502203708 | 55 | 290 | 1.7 | 1.7 | 0.00 | 0.00 | 0.00 | 43 | 1013.8 |
| 20260502203206 | 53 | 270 | 3.5 | 5.2 | 0.00 | 0.00 | 0.00 | 45 | 1013.8 |
| 20260502202700 | 53 | 211 | 1.7 | 1.7 | 0.00 | 0.00 | 0.00 | 43 | 1013.7 |
| 20260502202159 | 54 | 265 | 0.9 | 1.7 | 0.00 | 0.00 | 0.00 | 49 | 1013.7 |
| 20260502201655 | 53 | 131 | 0.9 | 1.7 | 0.00 | 0.00 | 0.00 | 45 | 1013.8 |
| 20260502201152 | 54 | 291 | 1.7 | 2.6 | 0.00 | 0.00 | 0.00 | 45 | 1013.8 |
| 20260502200647 | 54 | 272 | 0.9 | 0.9 | 0.00 | 0.00 | 0.00 | 44 | 1013.7 |
| 20260502200144 | 54 | 280 | 1.7 | 1.7 | 0.00 | 0.00 | 0.00 | 44 | 1013.7 |
| 20260502195643 | 55 | 212 | 1.7 | 2.6 | 0.00 | 0.00 | 0.00 | 43 | 1013.8 |
| 20260502195138 | 54 | 267 | 1.7 | 2.6 | 0.00 | 0.00 | 0.00 | 43 | 1014.0 |
| 20260502194635 | 55 | 294 | 0.9 | 1.7 | 0.00 | 0.00 | 0.00 | 45 | 1013.8 |
| 20260502194132 | 55 | 286 | 0.9 | 1.7 | 0.00 | 0.00 | 0.00 | 42 | 1013.9 |
| 20260502193629 | 55 | 225 | 0.9 | 1.7 | 0.00 | 0.00 | 0.00 | 45 | 1013.8 |
| 20260502193126 | 54 | 259 | 3.5 | 4.3 | 0.00 | 0.00 | 0.00 | 46 | 1013.9 |
| 20260502192621 | 53 | 167 | 1.7 | 2.6 | 0.00 | 0.00 | 0.00 | 46 | 1014.0 |
| 20260502192119 | 53 | 261 | 0.9 | 0.9 | 0.00 | 0.00 | 0.00 | 46 | 1014.2 |
| 20260502191615 | 53 | 266 | 2.6 | 4.3 | 0.00 | 0.00 | 0.00 | 45 | 1014.3 |
| 20260502191113 | 54 | 262 | 2.6 | 4.3 | 0.00 | 0.00 | 0.00 | 46 | 1014.0 |